This demonstration page uses our WeatherBlox Daily Observations layout. Learn more.

Left ArrowRight Arrow

39.12711, -84.51439

Hourly Observations for May 25, 2022

Temp ( °F °C ) Dew Point ( °F °C ) Humidity (%) Winds ( mph kmh ) Pressure ( in mb ) Visibility ( mi km ) Precip ( " mm )
12:53 am 00:53 Mostly Clear 63 17.2 60 15.6 90 90 NE 3 6 30.11 1020 10 16 0.00 0.00
1:53 am 01:53 Partly Cloudy 63 17.2 61 16.1 93 93 NE 6 9 30.09 1019 9 14 0.00 0.00
2:53 am 02:53 Cloudy 62 16.7 61 16.1 96 96 NE 5 7 30.07 1018 8 13 0.00 0.00
3:53 am 03:53 Cloudy 63 17.2 61 16.1 93 93 Calm 30.06 1018 9 14 0.00 0.00
4:53 am 04:53 Cloudy 64 17.8 62 16.7 93 93 Calm 30.06 1018 10 16 0.00 0.00
5:53 am 05:53 Partly Cloudy 63 17.2 61 16.1 93 93 Calm 30.07 1018 10 16 0.00 0.00
6:53 am 06:53 Mostly Cloudy 65 18.3 62 16.7 90 90 S 3 6 30.08 1019 10 16 0.00 0.00
7:53 am 07:53 Cloudy 66 18.9 63 17.2 90 90 Calm 30.08 1019 10 16 0.00 0.00
8:53 am 08:53 Partly Cloudy 68 20 64 17.8 87 87 Calm 30.08 1019 10 16 0.00 0.00
9:53 am 09:53 Cloudy 70 21.1 64 17.8 82 82 SE 6 9 30.09 1019 10 16 0.00 0.00
10:53 am 10:53 Partly Cloudy 72 22.2 67 19.4 84 84 SE 7 11 30.08 1019 10 16 0.00 0.00
11:53 am 11:53 Mostly Sunny 76 24.4 67 19.4 74 74 SSE 10 17 30.06 1018 10 16 0.00 0.00
12:53 pm 12:53 Mostly Cloudy 78 25.6 67 19.4 69 69 SSE 13 20 30.04 1017 10 16 0.00 0.00
1:53 pm 13:53 Mostly Sunny 81 27.2 70 21.1 69 69 S 8 13 30.02 1017 10 16 0.00 0.00
2:53 pm 14:53 Mostly Cloudy 82 27.8 70 21.1 67 67 SSE 8 13 30.00 1016 10 16 0.00 0.00
3:53 pm 15:53 Mostly Cloudy 82 27.8 70 21.1 67 67 SE 12 19 29.97 1015 10 16 0.00 0.00
4:53 pm 16:53 Mostly Sunny 82 27.8 69 20.6 65 65 ESE 9 15 29.94 1014 10 16 0.00 0.00
5:53 pm 17:53 Sunny 82 27.8 70 21.1 67 67 SSE 10 17 29.91 1013 10 16 0.00 0.00
6:53 pm 18:53 Mostly Sunny 81 27.2 69 20.6 67 67 SSE 8 13 29.91 1013 10 16 0.00 0.00
7:53 pm 19:53 Mostly Sunny 79 26.1 68 20 69 69 SE 6 9 29.92 1013 10 16 0.00 0.00
8:53 pm 20:53 Mostly Cloudy 77 25 69 20.6 77 77 SSE 10 17 29.92 1013 10 16 0.00 0.00
9:53 pm 21:53 Cloudy 74 23.3 68 20 82 82 Calm 29.93 1013 10 16 0.00 0.00
10:22 pm 22:22 Cloudy with Rain 73 22.8 68 20 84 84 S 7 11 29.92 1013 2 3 0.10 2.54
10:28 pm 22:28 Cloudy with Light Rain 72 22.2 68 20 87 87 SSE 5 7 29.92 1013 5 8 0.10 2.54
10:53 pm 22:53 Cloudy 71 21.7 69 20.6 94 94 Calm 29.94 1014 10 16 0.10 2.54
11:53 pm 23:53 Cloudy 71 21.7 69 20.6 94 94 S 3 6 29.94 1014 10 16 0.00 0.00

Powered by AerisWeather